Location: Unspecified
(0.0000°N, 0.0000°E)
Time: 03:13:05
(UTC+00:00)

SRMSAT - Pass Details

Date: 09 December 2017
Orbit: 848 x 866 km, 20.0° (Epoch: 21 June)

Event Time Altitude Azimuth Distance (km) Brightness Sun altitude
Rises 19:23:53 0° 261° (W) 3,395 ? -20.9°
Reaches altitude 10° 19:27:01 10° 246° (WSW) 2,460 ? -21.7°
Maximum altitude 19:31:29 22° 196° (SSW) 1,768 ? -22.7°
Drops below altitude 10° 19:35:57 10° 147° (SSE) 2,463 ? -23.7°
Enters shadow 19:37:18 - 139° (SE) 2,843 ? -24.0°
